Mount Ida, AR

5:29 PM CDT on June 23, 2017 (GMT -0500)
Mount Ida

Weather History for KMWT - March, 2013

Change the Weather History Date:

Friday, March 15, 2013

  Actual Average (KHOT) Record (KHOT)
Temperature  
Mean Temperature 62 °F -  
Max Temperature 80 °F 67 °F 84 °F (2016)
Min Temperature 46 °F 40 °F 21 °F (1993)
Degree Days  
Heating Degree Days 3    
Growing Degree Days 12 (Base 50)    
Moisture  
Dew Point 45 °F    
Average Humidity 54    
Maximum Humidity 86    
Minimum Humidity 31    
Precipitation  
Precipitation 0.00 in - - ()
Sea Level Pressure  
Sea Level Pressure 30.00 in    
Wind  
Wind Speed 3 mph (WSW)    
Max Wind Speed 10 mph    
Max Gust Speed 23 mph    
Visibility 10 miles    
Events      
Averages and records for this station are not official NWS values.
T = Trace of Precipitation, MM = Missing Value Source: NWS Daily Summary

Daily Weather History Graph

Daily Weather History Graph

Search for Another Location

Airport or City:

Trip Planner

Search our weather history database for the weather conditions in past years. The results will help you decide how hot, cold, wet, or windy it might be!

Date:

Astronomy

Mar. 15, 2013 Rise Set
Actual Time 7:24 AM CDT 7:22 PM CDT
Civil Twilight 6:59 AM CDT 7:47 PM CDT
Nautical Twilight 6:30 AM CDT 8:16 PM CDT
Astronomical Twilight 6:00 AM CDT 8:46 PM CDT
Moon 9:26 AM CDT (3/15) 11:24 PM CDT (3/15)
Length of Visible Light 12h 47m
Length of Day
11h 57m
Waxing Crescent, 15% of the Moon is Illuminated
Mar 15
Waxing Crescent
Mar 19
First Quarter
Mar 27
Full
Apr 2
Last Quarter
Apr 10
New

Hourly Weather History & Observations

Time (CDT) Temp. Dew Point Humidity Pressure Visibility Wind Dir Wind Speed Gust Speed Precip Events Conditions
12:53 AM 51.1 °F 42.1 °F 71% 30.14 in 10.0 mi Calm Calm - N/A   Clear
1:53 AM 50.0 °F 42.1 °F 74% 30.13 in 10.0 mi Calm Calm - N/A   Clear
2:53 AM 48.0 °F 42.1 °F 80% 30.12 in 10.0 mi Calm Calm - N/A   Clear
3:53 AM 48.0 °F 42.1 °F 80% 30.10 in 10.0 mi Calm Calm - N/A   Clear
4:53 AM 48.0 °F 42.1 °F 80% 30.10 in 10.0 mi Calm Calm - N/A   Clear
5:53 AM 48.9 °F 43.0 °F 80% 30.08 in 10.0 mi Calm Calm - N/A   Clear
6:53 AM 46.0 °F 42.1 °F 86% 30.08 in 10.0 mi Calm Calm - N/A   Clear
7:53 AM 46.9 °F 43.0 °F 86% 30.09 in 10.0 mi Calm Calm - N/A   Clear
8:24 AM 53.6 °F 44.6 °F 72% 30.09 in 10.0 mi Variable 3.5 mph - N/A   Partly Cloudy
8:53 AM 57.9 °F 46.9 °F 67% 30.09 in 10.0 mi Calm Calm - N/A   Clear
9:53 AM 64.0 °F 48.9 °F 58% 30.09 in 10.0 mi West 8.1 mph - N/A   Clear
10:53 AM 69.1 °F 48.0 °F 47% 30.06 in 10.0 mi Variable 6.9 mph 17.3 mph N/A   Clear
11:53 AM 73.9 °F 46.9 °F 38% 30.04 in 10.0 mi WNW 5.8 mph 16.1 mph N/A   Clear
12:53 PM 73.9 °F 46.0 °F 37% 30.02 in 10.0 mi Variable 5.8 mph 20.7 mph N/A   Clear
1:53 PM 75.0 °F 46.9 °F 37% 29.99 in 10.0 mi SW 9.2 mph 21.9 mph N/A   Clear
2:53 PM 78.1 °F 48.9 °F 36% 29.95 in 10.0 mi West 8.1 mph - N/A   Clear
3:53 PM 78.1 °F 46.9 °F 33% 29.93 in 10.0 mi West 10.4 mph 19.6 mph N/A   Clear
4:53 PM 78.1 °F 46.0 °F 32% 29.90 in 10.0 mi Variable 6.9 mph 19.6 mph N/A   Clear
5:53 PM 78.1 °F 45.0 °F 31% 29.88 in 10.0 mi Variable 6.9 mph 16.1 mph N/A   Clear
6:53 PM 75.0 °F 45.0 °F 34% 29.87 in 10.0 mi WSW 10.4 mph 17.3 mph N/A   Clear
7:53 PM 73.9 °F 45.0 °F 35% 29.87 in 10.0 mi Variable 6.9 mph 18.4 mph N/A   Clear
8:53 PM 72.0 °F 46.0 °F 40% 29.86 in 10.0 mi Variable 4.6 mph - N/A   Clear
9:53 PM 71.1 °F 46.0 °F 41% 29.86 in 10.0 mi WSW 8.1 mph 23.0 mph N/A   Clear
10:53 PM 70.0 °F 46.0 °F 42% 29.86 in 10.0 mi Variable 6.9 mph 17.3 mph N/A   Clear
11:53 PM 69.1 °F 44.1 °F 40% 29.85 in 10.0 mi WSW 10.4 mph 17.3 mph N/A   Clear